Flag for U.S.A. Weather past 2 weeks in Akron, Ohio, U.S.A.

Now
41 °F

Sunny.


Feels Like: 36 °F
Forecast: 38 / 58 °F
Wind: 7 mph from Northeast

Location: Akron Fulton International Airport


UV Index: 5 (Moderate)

Visibility: 10 mi


Pressure: 30.38 "Hg

Humidity: 74%

Dew point: 33 °F

Location of AkronLocation

Historic Weather in Akron

°F

Akron temperature yesterday

Maximum temperature yesterday: 68 °F (at 3:54 PM)
Minimum temperature yesterday: 42 °F (at 4:54 AM)
Average temperature yesterday: 55 °F

Past Weeks' High & Low Weather Summary

 TemperatureHumidityPressure
High79 °F (Apr 13, 2:54 PM)97% (Apr 4, 8:54 AM)30.50 "Hg (Apr 4, 8:54 AM)
Low21 °F (Apr 16, 5:54 AM)25% (Apr 10, 2:54 PM)29.31 "Hg (Apr 8, 1:54 AM)
Average49 °F60%29.97 "Hg
* Reported Apr 4 7:54 AM — Apr 19 7:54 AM, Akron, Weather by CustomWeather, © 2014

Note: Actual official high and low records may vary slightly from our data, if they occured in-between our weather recording intervals... More about our weather records

Advertising

Historic Weather Conditions — Data for Previous 24 hours

 ConditionsComfort  
Time TempWeatherWind HumidityBarometerVisibility
7:54 AM
Apr 19
41 °FSunny.7 mph74%30.38 "Hg10 mi
6:54 AM40 °FClear.9 mph80%30.35 "Hg8 mi
5:54 AM41 °FClear.6 mph80%30.32 "Hg9 mi
4:54 AM42 °FClear.7 mph82%30.31 "Hg9 mi
3:54 AM44 °FClear.8 mph82%30.29 "Hg8 mi
2:54 AM45 °FClear.7 mph82%30.29 "Hg9 mi
1:54 AM48 °FOvercast.6 mph77%30.27 "Hg10 mi
12:54 AM47 °FPassing clouds.6 mph77%30.27 "Hg10 mi
11:54 PM
Apr 18
49 °FPassing clouds.9 mph71%30.27 "Hg10 mi
10:54 PM51 °FClear.6 mph66%30.25 "Hg10 mi
9:54 PM52 °FClear.5 mph64%30.24 "Hg10 mi
8:54 PM56 °FSunny.7 mph55%30.22 "Hg10 mi
7:54 PM60 °FPassing clouds.6 mph46%30.21 "Hg10 mi
6:54 PM62 °FPartly sunny.7 mph43%30.22 "Hg10 mi
5:54 PM64 °FMostly cloudy.8 mph40%30.22 "Hg10 mi
4:54 PM64 °FOvercast.7 mph37%30.22 "Hg10 mi
3:54 PM68 °FPartly sunny.9 mph32%30.23 "Hg10 mi
2:54 PM67 °FPassing clouds.10 mph32%30.24 "Hg10 mi
1:54 PM65 °FPassing clouds.10 mph34%30.25 "Hg10 mi
12:54 PM64 °FSunny.6 mph34%30.25 "Hg10 mi
11:54 AM60 °FSunny.3 mph38%30.27 "Hg10 mi
10:54 AM57 °FSunny.5 mph37%30.29 "Hg10 mi
9:54 AM53 °FSunny.8 mph39%30.29 "Hg10 mi
8:54 AM51 °FSunny.6 mph42%30.29 "Hg10 mi
Weather by CustomWeather, © 2014

See weather overview